sat.trackr.live / text

‹ back to catalog

GEOEYE 1

NORAD 33331 · 2008-042A

PAYLOAD ACTIVE UNKNOWN

§ Identity

Operator
Country
US
Launch date
2008-09-06
Launch site
AFWTR
Launch vehicle
Mass (kg)
RCS (m²)
4.94

Purposes: earth_obs

External: N2YO · Heavens-Above · Gunter

§ Orbital elements

Epoch: 2026-05-25T04:45:56.594016Z

Period
98.31 min
Inclination
98.1238°
Eccentricity
0.0005332
Mean motion
14.64699775 rev/d
Perigee alt
674.3 km
Apogee alt
681.8 km
Semi-major
7,056.2 km
B*
8.5621e-5
RAAN
219.4206°
Arg perigee
124.8078°
Mean anomaly
235.3627°
Rev number
94,678

§ Raw data

GEOEYE 11 33331U 08042A   26145.19857169  .00000408  00000+0  85621-4 0  99982 33331  98.1238 219.4206 0005332 124.8078 235.3627 14.64699775946783

JSON: /api/v1/satellites/33331 · /tle

For live sub-satellite position, see the globe view (requires WebGL).

§ Visibility from observer

Set your observer location to see the next 7 days of passes ≥ 10°. The values pass through the URL so the page stays shareable.

No JS? Fill the form by hand. The geolocation button needs JavaScript.